GEFSGL_prec_meanprecacc_018.txt.gz
Total_Precipitation_Accumulation
0.15 0.12 0.09 0.06 0.05 0.03 0.02 0.02 0.02 0.01 0.01 0.01 0.01 0.01 0.02 0.02 0.03 0.06 0.08 0.10 0.13 0.18 0.24 0.32 0.45 0.63 0.80 0.79 0.68 0.56 0.46 0.38 0.33 0.23 0.18 0.09 0.05 0.04 0.02 0.01 0.00 0.00 0.00
0.20 0.15 0.11 0.09 0.08 0.06 0.04 0.03 0.02 0.01 0.01 0.01 0.02 0.02 0.02 0.03 0.04 0.07 0.09 0.09 0.12 0.15 0.15 0.18 0.29 0.51 0.74 0.85 0.88 0.81 0.68 0.58 0.57 0.46 0.25 0.12 0.08 0.06 0.04 0.02 0.01 0.00 0.00
0.33 0.22 0.16 0.12 0.09 0.07 0.06 0.04 0.04 0.02 0.01 0.01 0.02 0.02 0.02 0.03 0.03 0.05 0.09 0.10 0.12 0.17 0.21 0.21 0.21 0.32 0.51 0.68 0.78 0.80 0.74 0.69 0.68 0.60 0.40 0.25 0.18 0.11 0.05 0.02 0.01 0.00 0.00
0.50 0.42 0.29 0.21 0.16 0.12 0.09 0.09 0.07 0.05 0.03 0.02 0.03 0.07 0.06 0.05 0.05 0.06 0.04 0.04 0.04 0.09 0.14 0.19 0.22 0.23 0.31 0.42 0.55 0.63 0.72 0.77 0.77 0.73 0.57 0.34 0.31 0.19 0.08 0.04 0.02 0.01 0.00
0.63 0.61 0.43 0.31 0.25 0.21 0.19 0.18 0.15 0.12 0.08 0.05 0.04 0.07 0.11 0.14 0.13 0.14 0.08 0.03 0.02 0.03 0.05 0.07 0.11 0.15 0.19 0.27 0.35 0.49 0.70 0.82 0.83 0.81 0.71 0.44 0.29 0.19 0.08 0.06 0.03 0.02 0.01
0.53 0.59 0.53 0.43 0.31 0.23 0.24 0.26 0.23 0.20 0.15 0.11 0.08 0.06 0.06 0.09 0.14 0.16 0.09 0.03 0.02 0.03 0.04 0.04 0.05 0.06 0.10 0.15 0.20 0.27 0.44 0.57 0.66 0.66 0.62 0.46 0.33 0.23 0.15 0.08 0.03 0.01 0.00
0.42 0.50 0.48 0.41 0.33 0.27 0.28 0.29 0.26 0.22 0.20 0.18 0.16 0.13 0.10 0.13 0.15 0.10 0.09 0.06 0.04 0.02 0.02 0.02 0.02 0.02 0.03 0.05 0.10 0.17 0.21 0.27 0.36 0.49 0.51 0.49 0.54 0.41 0.25 0.13 0.06 0.02 0.01
0.22 0.25 0.27 0.26 0.25 0.27 0.28 0.27 0.26 0.24 0.22 0.22 0.28 0.32 0.29 0.23 0.20 0.14 0.11 0.07 0.04 0.03 0.02 0.01 0.02 0.02 0.02 0.04 0.05 0.07 0.11 0.19 0.24 0.25 0.32 0.48 0.62 0.68 0.50 0.29 0.18 0.09 0.03
0.06 0.08 0.10 0.12 0.13 0.16 0.17 0.20 0.28 0.31 0.31 0.34 0.44 0.49 0.41 0.29 0.25 0.23 0.18 0.09 0.05 0.06 0.06 0.04 0.03 0.02 0.04 0.06 0.06 0.06 0.10 0.19 0.22 0.29 0.38 0.44 0.48 0.54 0.54 0.40 0.26 0.16 0.08
0.00 0.00 0.01 0.01 0.02 0.05 0.08 0.10 0.16 0.22 0.28 0.35 0.36 0.32 0.31 0.35 0.35 0.26 0.25 0.19 0.15 0.15 0.12 0.07 0.07 0.07 0.08 0.09 0.08 0.09 0.08 0.11 0.18 0.23 0.25 0.25 0.26 0.28 0.33 0.29 0.27 0.24 0.16
0.00 0.00 0.00 0.00 0.00 0.00 0.01 0.02 0.04 0.08 0.11 0.13 0.14 0.16 0.22 0.38 0.39 0.31 0.33 0.26 0.20 0.18 0.14 0.12 0.12 0.14 0.12 0.10 0.08 0.06 0.08 0.09 0.10 0.11 0.11 0.12 0.12 0.13 0.15 0.20 0.22 0.21 0.22
0.00 0.00 0.00 0.00 0.00 0.00 0.00 0.00 0.01 0.02 0.03 0.05 0.06 0.09 0.14 0.22 0.26 0.23 0.19 0.17 0.16 0.19 0.21 0.21 0.20 0.27 0.20 0.10 0.05 0.05 0.07 0.06 0.05 0.05 0.05 0.07 0.09 0.11 0.11 0.15 0.18 0.16 0.15
0.00 0.00 0.00 0.00 0.00 0.00 0.01 0.01 0.01 0.02 0.03 0.04 0.06 0.09 0.13 0.17 0.17 0.14 0.09 0.09 0.13 0.19 0.25 0.29 0.32 0.27 0.15 0.09 0.08 0.08 0.07 0.06 0.06 0.06 0.05 0.06 0.06 0.09 0.14 0.20 0.25 0.27 0.26
0.00 0.00 0.00 0.00 0.00 0.00 0.01 0.01 0.01 0.02 0.03 0.06 0.10 0.13 0.15 0.17 0.18 0.17 0.16 0.13 0.14 0.15 0.19 0.24 0.24 0.16 0.10 0.10 0.09 0.08 0.08 0.09 0.07 0.05 0.03 0.03 0.04 0.04 0.07 0.12 0.20 0.29 0.34
0.00 0.00 0.00 0.00 0.00 0.00 0.01 0.01 0.01 0.01 0.04 0.08 0.10 0.12 0.13 0.13 0.13 0.14 0.21 0.26 0.31 0.38 0.34 0.23 0.20 0.18 0.16 0.11 0.07 0.06 0.08 0.08 0.07 0.05 0.03 0.03 0.03 0.04 0.04 0.05 0.07 0.12 0.18
0.00 0.00 0.00 0.01 0.01 0.00 0.00 0.00 0.00 0.01 0.01 0.03 0.04 0.06 0.09 0.11 0.07 0.06 0.13 0.25 0.38 0.50 0.59 0.54 0.52 0.50 0.44 0.30 0.12 0.05 0.05 0.05 0.05 0.04 0.03 0.03 0.03 0.04 0.05 0.05 0.05 0.07 0.09
0.00 0.00 0.00 0.00 0.01 0.01 0.01 0.03 0.05 0.03 0.01 0.01 0.01 0.03 0.08 0.12 0.10 0.13 0.18 0.22 0.32 0.49 0.70 0.74 0.71 0.57 0.44 0.34 0.20 0.09 0.07 0.06 0.05 0.04 0.04 0.04 0.04 0.04 0.04 0.03 0.03 0.04 0.05
0.00 0.00 0.00 0.01 0.01 0.01 0.01 0.05 0.13 0.17 0.12 0.03 0.00 0.02 0.07 0.13 0.18 0.25 0.33 0.41 0.46 0.53 0.59 0.57 0.49 0.39 0.30 0.20 0.16 0.11 0.06 0.06 0.07 0.06 0.05 0.04 0.02 0.02 0.02 0.02 0.02 0.02 0.02
0.00 0.00 0.02 0.04 0.02 0.01 0.02 0.09 0.13 0.05 0.03 0.04 0.03 0.01 0.02 0.04 0.09 0.16 0.25 0.33 0.32 0.33 0.31 0.25 0.19 0.14 0.12 0.08 0.07 0.06 0.03 0.03 0.03 0.02 0.02 0.01 0.01 0.01 0.01 0.01 0.01 0.03 0.03
0.00 0.00 0.01 0.06 0.06 0.02 0.04 0.07 0.05 0.03 0.03 0.05 0.05 0.02 0.01 0.02 0.05 0.08 0.11 0.13 0.12 0.13 0.11 0.09 0.06 0.03 0.04 0.03 0.01 0.01 0.01 0.01 0.01 0.01 0.01 0.01 0.02 0.02 0.02 0.02 0.02 0.03 0.03
0.00 0.00 0.00 0.02 0.05 0.03 0.03 0.04 0.02 0.02 0.03 0.03 0.02 0.01 0.01 0.05 0.05 0.05 0.05 0.04 0.04 0.04 0.05 0.05 0.03 0.02 0.01 0.01 0.01 0.02 0.03 0.03 0.03 0.03 0.02 0.02 0.02 0.02 0.02 0.02 0.03 0.04 0.04
0.00 0.00 0.00 0.03 0.03 0.02 0.01 0.03 0.04 0.02 0.01 0.02 0.02 0.01 0.02 0.07 0.06 0.03 0.02 0.01 0.01 0.02 0.05 0.06 0.06 0.05 0.02 0.01 0.01 0.01 0.01 0.01 0.02 0.02 0.02 0.02 0.02 0.02 0.02 0.02 0.04 0.04 0.05
0.00 0.00 0.00 0.02 0.03 0.01 0.00 0.01 0.04 0.05 0.03 0.03 0.03 0.02 0.03 0.05 0.06 0.06 0.05 0.04 0.06 0.08 0.05 0.03 0.04 0.05 0.02 0.01 0.01 0.01 0.01 0.01 0.01 0.01 0.01 0.01 0.01 0.02 0.02 0.03 0.03 0.04 0.06
0.00 0.00 0.00 0.01 0.03 0.02 0.01 0.02 0.02 0.02 0.03 0.05 0.05 0.04 0.04 0.06 0.08 0.06 0.04 0.07 0.08 0.07 0.05 0.02 0.01 0.01 0.01 0.00 0.00 0.00 0.01 0.01 0.01 0.01 0.02 0.02 0.03 0.03 0.03 0.04 0.06 0.09 0.13
0.00 0.00 0.00 0.01 0.03 0.02 0.02 0.02 0.01 0.00 0.02 0.05 0.03 0.03 0.02 0.02 0.02 0.02 0.02 0.03 0.04 0.02 0.02 0.01 0.01 0.01 0.00 0.00 0.00 0.00 0.01 0.03 0.04 0.02 0.02 0.02 0.03 0.05 0.05 0.07 0.12 0.15 0.19
0.00 0.00 0.00 0.00 0.01 0.01 0.01 0.01 0.01 0.01 0.02 0.02 0.01 0.02 0.02 0.01 0.02 0.01 0.01 0.01 0.01 0.01 0.01 0.00 0.00 0.00 0.00 0.00 0.00 0.00 0.01 0.02 0.03 0.03 0.02 0.02 0.03 0.04 0.05 0.07 0.09 0.11 0.15

GEFSGL_prec_meanprecacc_024.txt.gz
Total_Precipitation_Accumulation
0.54 0.51 0.46 0.40 0.33 0.25 0.19 0.14 0.09 0.04 0.02 0.01 0.01 0.01 0.02 0.02 0.03 0.06 0.08 0.10 0.13 0.18 0.25 0.34 0.47 0.68 0.88 0.88 0.81 0.68 0.57 0.47 0.38 0.26 0.21 0.11 0.07 0.05 0.04 0.01 0.00 0.00 0.00
0.52 0.49 0.44 0.36 0.28 0.25 0.19 0.12 0.07 0.04 0.02 0.01 0.02 0.02 0.02 0.03 0.04 0.07 0.09 0.09 0.12 0.15 0.16 0.19 0.31 0.56 0.81 0.94 0.99 0.92 0.78 0.66 0.63 0.51 0.30 0.15 0.11 0.10 0.07 0.04 0.02 0.01 0.00
0.60 0.48 0.39 0.34 0.28 0.24 0.18 0.11 0.07 0.05 0.03 0.01 0.02 0.03 0.02 0.03 0.03 0.05 0.09 0.10 0.12 0.17 0.21 0.21 0.22 0.35 0.57 0.76 0.88 0.92 0.87 0.81 0.79 0.69 0.48 0.32 0.23 0.14 0.08 0.05 0.03 0.02 0.02
0.73 0.64 0.48 0.36 0.31 0.25 0.18 0.14 0.11 0.08 0.06 0.04 0.04 0.08 0.07 0.06 0.05 0.06 0.05 0.04 0.04 0.09 0.14 0.19 0.22 0.24 0.34 0.48 0.62 0.73 0.86 0.94 0.94 0.87 0.68 0.43 0.38 0.23 0.11 0.07 0.06 0.03 0.02
0.83 0.79 0.58 0.43 0.37 0.30 0.25 0.23 0.20 0.16 0.11 0.08 0.07 0.10 0.14 0.16 0.15 0.16 0.10 0.04 0.03 0.04 0.05 0.07 0.11 0.15 0.20 0.29 0.37 0.54 0.79 0.96 1.01 1.01 0.91 0.62 0.42 0.29 0.15 0.10 0.08 0.07 0.04
0.63 0.69 0.62 0.50 0.38 0.30 0.29 0.30 0.27 0.24 0.18 0.15 0.13 0.12 0.12 0.14 0.22 0.21 0.12 0.04 0.03 0.04 0.05 0.04 0.05 0.06 0.10 0.16 0.21 0.28 0.46 0.63 0.76 0.79 0.79 0.64 0.48 0.38 0.30 0.20 0.11 0.07 0.06
0.45 0.53 0.51 0.44 0.35 0.29 0.31 0.32 0.28 0.25 0.23 0.21 0.20 0.18 0.16 0.21 0.22 0.13 0.12 0.10 0.09 0.08 0.06 0.04 0.03 0.02 0.03 0.06 0.11 0.17 0.21 0.27 0.38 0.54 0.59 0.60 0.67 0.55 0.39 0.26 0.18 0.12 0.10
0.22 0.26 0.27 0.27 0.26 0.27 0.28 0.28 0.27 0.25 0.23 0.23 0.29 0.34 0.32 0.27 0.24 0.17 0.14 0.13 0.15 0.13 0.08 0.05 0.04 0.03 0.03 0.04 0.05 0.08 0.12 0.19 0.24 0.26 0.34 0.53 0.68 0.78 0.65 0.46 0.37 0.27 0.19
0.06 0.08 0.10 0.12 0.13 0.16 0.17 0.20 0.28 0.31 0.31 0.34 0.44 0.50 0.42 0.30 0.27 0.25 0.21 0.17 0.18 0.21 0.15 0.09 0.06 0.05 0.07 0.07 0.06 0.08 0.12 0.20 0.22 0.29 0.39 0.45 0.50 0.57 0.60 0.51 0.43 0.36 0.28
0.00 0.00 0.01 0.01 0.02 0.05 0.08 0.10 0.16 0.22 0.28 0.35 0.36 0.32 0.31 0.35 0.36 0.27 0.27 0.26 0.26 0.29 0.23 0.15 0.16 0.14 0.14 0.11 0.09 0.11 0.12 0.14 0.19 0.24 0.26 0.26 0.27 0.31 0.37 0.38 0.40 0.40 0.35
0.00 0.00 0.00 0.00 0.00 0.00 0.01 0.02 0.04 0.08 0.11 0.13 0.14 0.16 0.22 0.38 0.39 0.32 0.34 0.29 0.26 0.27 0.24 0.21 0.18 0.22 0.18 0.14 0.10 0.08 0.12 0.11 0.11 0.14 0.13 0.14 0.15 0.16 0.20 0.27 0.31 0.32 0.35
0.00 0.00 0.00 0.00 0.00 0.00 0.00 0.00 0.01 0.02 0.03 0.05 0.06 0.09 0.14 0.22 0.26 0.23 0.20 0.18 0.19 0.24 0.26 0.26 0.24 0.33 0.24 0.13 0.07 0.07 0.10 0.08 0.07 0.09 0.09 0.11 0.13 0.14 0.13 0.18 0.22 0.22 0.22
0.00 0.00 0.00 0.00 0.00 0.00 0.01 0.01 0.01 0.02 0.03 0.04 0.06 0.09 0.13 0.17 0.17 0.14 0.10 0.09 0.14 0.21 0.26 0.31 0.34 0.30 0.19 0.12 0.10 0.11 0.10 0.09 0.09 0.10 0.09 0.09 0.08 0.10 0.15 0.21 0.26 0.28 0.28
0.00 0.00 0.00 0.00 0.00 0.00 0.01 0.01 0.01 0.02 0.04 0.06 0.10 0.14 0.15 0.18 0.18 0.18 0.16 0.13 0.15 0.16 0.19 0.25 0.26 0.18 0.13 0.13 0.12 0.11 0.11 0.12 0.11 0.08 0.06 0.05 0.05 0.06 0.08 0.13 0.21 0.30 0.37
0.00 0.00 0.00 0.00 0.00 0.01 0.01 0.01 0.01 0.02 0.04 0.09 0.11 0.13 0.13 0.13 0.13 0.14 0.22 0.26 0.33 0.39 0.35 0.25 0.23 0.21 0.19 0.14 0.09 0.08 0.10 0.11 0.10 0.07 0.06 0.05 0.06 0.06 0.05 0.06 0.08 0.13 0.20
0.00 0.00 0.00 0.01 0.01 0.00 0.00 0.00 0.01 0.01 0.01 0.03 0.04 0.06 0.10 0.11 0.07 0.06 0.13 0.26 0.39 0.51 0.63 0.59 0.57 0.54 0.47 0.33 0.14 0.06 0.05 0.06 0.07 0.06 0.05 0.05 0.05 0.06 0.07 0.06 0.06 0.09 0.12
0.00 0.00 0.00 0.00 0.01 0.01 0.01 0.03 0.05 0.04 0.01 0.01 0.01 0.04 0.08 0.12 0.10 0.13 0.19 0.23 0.33 0.52 0.75 0.79 0.76 0.62 0.47 0.36 0.22 0.10 0.08 0.07 0.06 0.06 0.05 0.05 0.05 0.05 0.05 0.04 0.04 0.05 0.07
0.00 0.00 0.00 0.01 0.01 0.01 0.01 0.05 0.13 0.17 0.13 0.04 0.01 0.02 0.07 0.13 0.18 0.26 0.34 0.43 0.47 0.55 0.62 0.60 0.52 0.42 0.34 0.22 0.18 0.14 0.08 0.07 0.08 0.07 0.07 0.06 0.04 0.03 0.03 0.03 0.03 0.03 0.03
0.00 0.00 0.02 0.04 0.02 0.01 0.02 0.09 0.13 0.05 0.03 0.04 0.03 0.01 0.02 0.04 0.10 0.16 0.26 0.34 0.33 0.34 0.33 0.27 0.21 0.17 0.15 0.11 0.09 0.08 0.05 0.04 0.04 0.04 0.05 0.05 0.04 0.03 0.02 0.02 0.03 0.04 0.04
0.00 0.00 0.01 0.06 0.06 0.02 0.04 0.07 0.05 0.03 0.03 0.05 0.05 0.03 0.02 0.02 0.05 0.08 0.12 0.14 0.13 0.14 0.12 0.10 0.07 0.05 0.05 0.04 0.03 0.02 0.02 0.02 0.02 0.02 0.03 0.03 0.03 0.03 0.03 0.03 0.03 0.04 0.04
0.00 0.00 0.00 0.02 0.05 0.03 0.03 0.04 0.02 0.02 0.03 0.03 0.02 0.01 0.02 0.05 0.06 0.06 0.05 0.05 0.05 0.05 0.06 0.06 0.03 0.02 0.01 0.01 0.02 0.03 0.03 0.03 0.03 0.03 0.03 0.03 0.03 0.02 0.02 0.03 0.04 0.04 0.04
0.00 0.00 0.00 0.03 0.03 0.02 0.01 0.03 0.04 0.02 0.01 0.02 0.02 0.01 0.03 0.08 0.06 0.04 0.02 0.02 0.01 0.02 0.05 0.06 0.06 0.06 0.02 0.01 0.01 0.01 0.01 0.01 0.02 0.02 0.02 0.03 0.02 0.02 0.02 0.03 0.04 0.05 0.05
0.00 0.00 0.00 0.02 0.03 0.01 0.00 0.01 0.04 0.05 0.03 0.03 0.03 0.02 0.03 0.06 0.06 0.07 0.05 0.05 0.07 0.08 0.05 0.03 0.05 0.05 0.02 0.01 0.01 0.01 0.01 0.01 0.01 0.01 0.02 0.02 0.01 0.02 0.02 0.03 0.04 0.05 0.06
0.00 0.00 0.00 0.01 0.03 0.02 0.01 0.02 0.02 0.02 0.03 0.05 0.05 0.04 0.04 0.06 0.08 0.06 0.04 0.07 0.08 0.07 0.05 0.02 0.02 0.01 0.01 0.01 0.00 0.00 0.01 0.01 0.01 0.01 0.02 0.02 0.03 0.03 0.03 0.04 0.06 0.09 0.14
0.00 0.00 0.00 0.01 0.03 0.02 0.02 0.02 0.01 0.01 0.02 0.05 0.03 0.03 0.02 0.02 0.02 0.02 0.02 0.03 0.04 0.02 0.02 0.01 0.01 0.01 0.00 0.00 0.00 0.00 0.01 0.03 0.04 0.03 0.02 0.02 0.03 0.05 0.05 0.07 0.12 0.15 0.19
0.00 0.00 0.00 0.00 0.01 0.01 0.01 0.01 0.01 0.01 0.02 0.02 0.01 0.02 0.02 0.02 0.02 0.01 0.01 0.01 0.01 0.01 0.01 0.00 0.00 0.00 0.00 0.00 0.00 0.00 0.01 0.02 0.03 0.03 0.02 0.03 0.04 0.04 0.06 0.07 0.09 0.11 0.15

GEFSGL_prec_meanprecacc_030.txt.gz
Total_Precipitation_Accumulation
0.69 0.68 0.65 0.58 0.50 0.44 0.40 0.37 0.32 0.24 0.19 0.13 0.09 0.07 0.07 0.05 0.05 0.08 0.09 0.11 0.14 0.19 0.26 0.35 0.49 0.71 0.95 0.97 0.92 0.82 0.73 0.64 0.52 0.44 0.33 0.20 0.19 0.16 0.11 0.04 0.01 0.00 0.00
0.68 0.68 0.64 0.54 0.46 0.43 0.38 0.33 0.27 0.20 0.14 0.10 0.10 0.07 0.05 0.05 0.05 0.08 0.09 0.10 0.12 0.15 0.16 0.20 0.32 0.59 0.87 1.03 1.11 1.05 0.91 0.81 0.77 0.68 0.46 0.27 0.23 0.26 0.28 0.21 0.09 0.04 0.02
0.79 0.67 0.55 0.49 0.45 0.42 0.33 0.28 0.24 0.17 0.11 0.08 0.11 0.09 0.06 0.04 0.04 0.05 0.09 0.11 0.12 0.17 0.21 0.22 0.23 0.37 0.61 0.84 0.98 1.04 1.00 0.96 0.96 0.83 0.62 0.47 0.37 0.29 0.25 0.21 0.16 0.13 0.09
0.94 0.83 0.67 0.55 0.47 0.40 0.32 0.30 0.26 0.19 0.16 0.13 0.14 0.15 0.11 0.07 0.07 0.07 0.05 0.05 0.05 0.09 0.15 0.19 0.22 0.25 0.36 0.51 0.68 0.82 0.97 1.08 1.11 1.03 0.83 0.59 0.53 0.38 0.26 0.23 0.23 0.21 0.17
0.98 0.95 0.77 0.63 0.56 0.48 0.42 0.40 0.35 0.30 0.22 0.19 0.17 0.19 0.24 0.24 0.24 0.26 0.14 0.06 0.05 0.05 0.06 0.07 0.11 0.15 0.21 0.30 0.39 0.58 0.87 1.07 1.15 1.16 1.07 0.80 0.59 0.42 0.26 0.23 0.23 0.26 0.25
0.71 0.76 0.70 0.60 0.49 0.42 0.42 0.42 0.39 0.35 0.30 0.28 0.26 0.27 0.31 0.32 0.47 0.41 0.21 0.08 0.05 0.05 0.07 0.05 0.06 0.07 0.11 0.17 0.21 0.29 0.48 0.67 0.84 0.91 0.93 0.80 0.67 0.54 0.43 0.31 0.22 0.18 0.19
0.46 0.55 0.53 0.46 0.38 0.32 0.34 0.36 0.34 0.31 0.31 0.29 0.29 0.27 0.29 0.37 0.38 0.22 0.16 0.12 0.12 0.10 0.09 0.07 0.05 0.04 0.04 0.07 0.13 0.19 0.23 0.29 0.40 0.57 0.67 0.71 0.78 0.66 0.51 0.36 0.26 0.22 0.22
0.22 0.26 0.27 0.27 0.26 0.28 0.29 0.29 0.28 0.26 0.25 0.25 0.32 0.37 0.37 0.32 0.29 0.19 0.15 0.15 0.21 0.18 0.11 0.07 0.08 0.07 0.09 0.10 0.09 0.12 0.17 0.23 0.28 0.27 0.39 0.60 0.73 0.83 0.70 0.52 0.45 0.35 0.28
0.06 0.08 0.10 0.12 0.13 0.17 0.17 0.20 0.29 0.31 0.31 0.35 0.45 0.51 0.43 0.31 0.28 0.25 0.22 0.22 0.27 0.28 0.20 0.15 0.12 0.14 0.25 0.18 0.10 0.13 0.19 0.27 0.28 0.33 0.40 0.46 0.50 0.58 0.62 0.55 0.47 0.39 0.33
0.00 0.00 0.01 0.01 0.02 0.05 0.08 0.10 0.16 0.22 0.28 0.35 0.36 0.33 0.32 0.36 0.36 0.27 0.28 0.31 0.35 0.39 0.32 0.25 0.31 0.27 0.31 0.22 0.11 0.18 0.25 0.26 0.25 0.30 0.31 0.29 0.30 0.33 0.38 0.40 0.47 0.47 0.42
0.00 0.00 0.00 0.00 0.00 0.01 0.01 0.02 0.04 0.09 0.12 0.13 0.14 0.16 0.22 0.38 0.39 0.32 0.35 0.31 0.31 0.35 0.35 0.35 0.29 0.32 0.24 0.19 0.13 0.14 0.24 0.20 0.17 0.23 0.23 0.24 0.23 0.24 0.26 0.32 0.38 0.39 0.42
0.00 0.00 0.00 0.00 0.00 0.00 0.01 0.01 0.01 0.02 0.03 0.05 0.07 0.10 0.15 0.22 0.26 0.24 0.20 0.19 0.21 0.30 0.35 0.34 0.30 0.39 0.27 0.15 0.08 0.10 0.14 0.12 0.15 0.21 0.22 0.22 0.22 0.21 0.19 0.22 0.26 0.27 0.29
0.00 0.00 0.00 0.00 0.00 0.00 0.01 0.01 0.01 0.02 0.03 0.04 0.07 0.10 0.14 0.18 0.18 0.15 0.10 0.10 0.15 0.23 0.29 0.35 0.37 0.33 0.21 0.13 0.12 0.12 0.12 0.14 0.19 0.22 0.19 0.16 0.14 0.14 0.18 0.23 0.28 0.31 0.32
0.00 0.00 0.00 0.01 0.01 0.01 0.01 0.01 0.02 0.02 0.04 0.06 0.11 0.15 0.17 0.19 0.19 0.18 0.18 0.15 0.17 0.19 0.23 0.28 0.28 0.20 0.16 0.16 0.15 0.14 0.16 0.19 0.21 0.17 0.11 0.08 0.08 0.10 0.12 0.16 0.23 0.35 0.45
0.00 0.00 0.00 0.01 0.01 0.01 0.01 0.01 0.01 0.02 0.04 0.09 0.11 0.14 0.14 0.14 0.13 0.14 0.22 0.28 0.35 0.41 0.40 0.34 0.31 0.30 0.27 0.21 0.16 0.15 0.16 0.17 0.16 0.13 0.11 0.11 0.11 0.12 0.10 0.09 0.11 0.17 0.25
0.00 0.00 0.00 0.01 0.01 0.01 0.02 0.01 0.01 0.01 0.01 0.03 0.04 0.06 0.10 0.12 0.07 0.07 0.14 0.26 0.40 0.54 0.71 0.69 0.66 0.62 0.55 0.40 0.20 0.12 0.10 0.12 0.13 0.13 0.12 0.11 0.10 0.11 0.11 0.09 0.08 0.11 0.15
0.00 0.00 0.00 0.00 0.01 0.01 0.03 0.06 0.07 0.05 0.01 0.01 0.01 0.04 0.08 0.12 0.10 0.14 0.19 0.24 0.34 0.56 0.82 0.85 0.82 0.68 0.53 0.42 0.26 0.13 0.09 0.09 0.09 0.09 0.09 0.09 0.08 0.08 0.07 0.06 0.06 0.07 0.09
0.00 0.00 0.00 0.01 0.01 0.01 0.02 0.06 0.16 0.20 0.16 0.05 0.01 0.02 0.07 0.13 0.18 0.26 0.35 0.43 0.48 0.56 0.63 0.62 0.54 0.45 0.36 0.25 0.20 0.16 0.09 0.07 0.08 0.08 0.07 0.07 0.05 0.04 0.05 0.05 0.05 0.04 0.05
0.00 0.00 0.02 0.04 0.02 0.01 0.02 0.09 0.14 0.06 0.04 0.06 0.05 0.02 0.02 0.05 0.10 0.16 0.26 0.34 0.34 0.35 0.33 0.27 0.22 0.18 0.16 0.11 0.10 0.09 0.05 0.04 0.05 0.05 0.06 0.06 0.04 0.04 0.04 0.03 0.04 0.04 0.04
0.00 0.00 0.01 0.06 0.06 0.02 0.04 0.07 0.05 0.03 0.04 0.05 0.05 0.03 0.02 0.03 0.06 0.09 0.12 0.15 0.14 0.14 0.13 0.11 0.08 0.05 0.05 0.05 0.03 0.03 0.02 0.02 0.02 0.03 0.03 0.04 0.04 0.03 0.04 0.04 0.04 0.05 0.05
0.00 0.00 0.00 0.02 0.05 0.03 0.03 0.04 0.02 0.02 0.03 0.04 0.03 0.01 0.02 0.05 0.06 0.07 0.06 0.05 0.05 0.05 0.06 0.06 0.03 0.02 0.01 0.01 0.02 0.03 0.03 0.03 0.03 0.03 0.03 0.03 0.03 0.03 0.03 0.03 0.04 0.05 0.05
0.00 0.00 0.00 0.03 0.03 0.02 0.01 0.03 0.04 0.02 0.02 0.02 0.02 0.01 0.03 0.08 0.07 0.04 0.03 0.02 0.02 0.02 0.05 0.07 0.06 0.06 0.02 0.01 0.01 0.01 0.01 0.02 0.02 0.02 0.03 0.03 0.03 0.03 0.02 0.03 0.04 0.05 0.05
0.00 0.00 0.00 0.02 0.03 0.01 0.00 0.01 0.04 0.05 0.03 0.03 0.04 0.02 0.03 0.06 0.07 0.07 0.05 0.05 0.07 0.08 0.05 0.03 0.05 0.05 0.02 0.01 0.01 0.01 0.01 0.01 0.02 0.02 0.02 0.02 0.02 0.02 0.03 0.03 0.04 0.05 0.06
0.00 0.00 0.00 0.01 0.03 0.02 0.02 0.02 0.02 0.02 0.03 0.05 0.05 0.04 0.04 0.06 0.08 0.06 0.04 0.07 0.08 0.07 0.05 0.03 0.02 0.01 0.01 0.01 0.01 0.01 0.01 0.01 0.01 0.01 0.02 0.02 0.03 0.03 0.03 0.04 0.06 0.09 0.14
0.00 0.00 0.00 0.01 0.03 0.02 0.02 0.02 0.01 0.01 0.02 0.05 0.03 0.03 0.02 0.02 0.03 0.02 0.02 0.03 0.04 0.02 0.02 0.01 0.01 0.01 0.00 0.00 0.00 0.00 0.01 0.03 0.04 0.03 0.02 0.02 0.04 0.05 0.05 0.08 0.12 0.15 0.19
0.00 0.00 0.00 0.00 0.01 0.01 0.01 0.01 0.01 0.01 0.02 0.02 0.01 0.03 0.02 0.02 0.02 0.01 0.01 0.01 0.01 0.01 0.01 0.00 0.00 0.00 0.00 0.00 0.00 0.00 0.01 0.02 0.03 0.03 0.02 0.03 0.04 0.04 0.06 0.07 0.09 0.11 0.15

GEFSGL_prec_meanprecacc_036.txt.gz
Total_Precipitation_Accumulation
0.72 0.72 0.69 0.64 0.56 0.51 0.51 0.53 0.51 0.45 0.38 0.30 0.24 0.22 0.22 0.18 0.15 0.17 0.17 0.16 0.18 0.22 0.28 0.37 0.50 0.73 0.96 0.98 0.93 0.83 0.75 0.67 0.54 0.45 0.35 0.21 0.21 0.19 0.15 0.08 0.04 0.02 0.01
0.72 0.72 0.68 0.59 0.52 0.50 0.45 0.42 0.37 0.31 0.28 0.25 0.24 0.20 0.18 0.20 0.18 0.19 0.18 0.15 0.15 0.17 0.18 0.22 0.34 0.60 0.88 1.04 1.11 1.06 0.93 0.83 0.78 0.69 0.48 0.29 0.25 0.29 0.32 0.26 0.14 0.08 0.06
0.85 0.73 0.61 0.55 0.52 0.51 0.42 0.36 0.33 0.27 0.24 0.23 0.28 0.27 0.24 0.23 0.20 0.20 0.21 0.20 0.18 0.21 0.24 0.23 0.24 0.38 0.61 0.84 0.98 1.04 1.01 0.97 0.97 0.84 0.64 0.49 0.40 0.31 0.28 0.25 0.21 0.19 0.16
1.02 0.90 0.74 0.62 0.55 0.48 0.41 0.39 0.37 0.33 0.34 0.35 0.40 0.42 0.36 0.30 0.27 0.28 0.25 0.20 0.18 0.18 0.20 0.22 0.24 0.26 0.36 0.52 0.68 0.82 0.97 1.09 1.12 1.04 0.86 0.62 0.57 0.41 0.28 0.26 0.26 0.25 0.25
1.02 1.01 0.83 0.70 0.64 0.56 0.52 0.51 0.49 0.51 0.47 0.45 0.48 0.54 0.60 0.55 0.51 0.52 0.38 0.27 0.22 0.18 0.16 0.13 0.14 0.17 0.21 0.30 0.40 0.58 0.87 1.08 1.16 1.16 1.08 0.82 0.61 0.45 0.29 0.27 0.28 0.33 0.34
0.73 0.79 0.75 0.66 0.54 0.48 0.50 0.51 0.48 0.46 0.41 0.40 0.42 0.47 0.53 0.55 0.70 0.60 0.36 0.23 0.19 0.19 0.19 0.14 0.12 0.10 0.13 0.18 0.22 0.29 0.49 0.67 0.84 0.91 0.93 0.81 0.67 0.55 0.45 0.35 0.26 0.23 0.25
0.47 0.56 0.54 0.49 0.42 0.36 0.37 0.39 0.37 0.33 0.34 0.33 0.33 0.33 0.36 0.45 0.46 0.29 0.22 0.18 0.18 0.19 0.20 0.19 0.15 0.11 0.10 0.12 0.16 0.21 0.25 0.31 0.41 0.57 0.68 0.72 0.78 0.66 0.52 0.38 0.29 0.24 0.26
0.22 0.26 0.27 0.27 0.26 0.28 0.30 0.30 0.30 0.27 0.26 0.26 0.33 0.39 0.39 0.34 0.31 0.21 0.17 0.17 0.24 0.23 0.18 0.15 0.16 0.16 0.18 0.20 0.15 0.16 0.22 0.27 0.30 0.29 0.40 0.61 0.74 0.83 0.71 0.53 0.46 0.37 0.30
0.06 0.08 0.10 0.12 0.13 0.17 0.17 0.20 0.29 0.32 0.32 0.35 0.45 0.51 0.44 0.32 0.29 0.26 0.23 0.23 0.29 0.32 0.24 0.19 0.18 0.22 0.36 0.29 0.16 0.18 0.25 0.33 0.33 0.37 0.42 0.47 0.51 0.58 0.63 0.56 0.48 0.40 0.34
0.00 0.00 0.01 0.01 0.02 0.05 0.08 0.10 0.16 0.22 0.29 0.35 0.36 0.33 0.32 0.36 0.36 0.28 0.29 0.32 0.35 0.40 0.34 0.28 0.36 0.33 0.38 0.28 0.17 0.23 0.31 0.33 0.32 0.36 0.35 0.33 0.32 0.34 0.39 0.41 0.47 0.48 0.43
0.00 0.00 0.00 0.00 0.00 0.01 0.01 0.02 0.04 0.09 0.12 0.13 0.14 0.16 0.22 0.38 0.39 0.32 0.35 0.31 0.32 0.36 0.37 0.37 0.33 0.36 0.27 0.22 0.16 0.17 0.28 0.26 0.23 0.29 0.28 0.27 0.25 0.25 0.27 0.33 0.38 0.39 0.43
0.00 0.00 0.00 0.00 0.00 0.00 0.01 0.01 0.01 0.02 0.03 0.05 0.07 0.10 0.15 0.22 0.26 0.24 0.20 0.19 0.22 0.30 0.35 0.35 0.32 0.41 0.29 0.16 0.10 0.12 0.17 0.15 0.18 0.25 0.26 0.27 0.25 0.22 0.20 0.23 0.26 0.27 0.29
0.00 0.00 0.00 0.00 0.01 0.00 0.01 0.01 0.01 0.02 0.03 0.04 0.07 0.10 0.14 0.19 0.18 0.15 0.11 0.11 0.16 0.24 0.29 0.36 0.39 0.34 0.22 0.14 0.14 0.15 0.15 0.16 0.22 0.25 0.23 0.18 0.15 0.15 0.19 0.25 0.30 0.32 0.33
0.00 0.00 0.00 0.01 0.01 0.01 0.01 0.01 0.02 0.02 0.04 0.06 0.11 0.15 0.17 0.19 0.19 0.18 0.19 0.18 0.20 0.21 0.25 0.31 0.32 0.24 0.19 0.18 0.18 0.17 0.18 0.21 0.23 0.20 0.13 0.08 0.08 0.11 0.13 0.17 0.25 0.36 0.46
0.00 0.00 0.00 0.01 0.01 0.01 0.01 0.01 0.01 0.02 0.04 0.09 0.11 0.14 0.15 0.14 0.14 0.15 0.23 0.29 0.37 0.43 0.43 0.36 0.34 0.33 0.29 0.23 0.18 0.17 0.18 0.18 0.17 0.15 0.12 0.12 0.12 0.13 0.10 0.09 0.12 0.17 0.25
0.00 0.00 0.00 0.01 0.01 0.01 0.02 0.01 0.01 0.01 0.01 0.03 0.04 0.06 0.11 0.12 0.08 0.07 0.14 0.27 0.41 0.56 0.73 0.71 0.68 0.64 0.57 0.42 0.22 0.13 0.11 0.12 0.13 0.13 0.13 0.12 0.10 0.11 0.11 0.09 0.09 0.11 0.15
0.00 0.00 0.00 0.00 0.01 0.01 0.03 0.06 0.07 0.05 0.01 0.01 0.01 0.04 0.09 0.12 0.11 0.14 0.19 0.24 0.35 0.57 0.83 0.86 0.83 0.69 0.54 0.43 0.27 0.14 0.09 0.09 0.09 0.09 0.09 0.09 0.08 0.08 0.08 0.07 0.06 0.07 0.09
0.00 0.00 0.00 0.01 0.01 0.01 0.02 0.06 0.16 0.20 0.16 0.05 0.01 0.02 0.07 0.13 0.18 0.26 0.35 0.44 0.48 0.56 0.63 0.62 0.55 0.45 0.36 0.25 0.21 0.16 0.09 0.08 0.08 0.08 0.08 0.07 0.05 0.05 0.05 0.06 0.05 0.04 0.05
0.00 0.00 0.02 0.04 0.02 0.01 0.02 0.09 0.14 0.06 0.04 0.06 0.05 0.02 0.02 0.05 0.10 0.16 0.26 0.34 0.34 0.35 0.33 0.27 0.22 0.18 0.16 0.12 0.10 0.09 0.05 0.04 0.05 0.05 0.06 0.06 0.05 0.04 0.04 0.03 0.04 0.04 0.04
0.00 0.00 0.01 0.06 0.06 0.02 0.04 0.08 0.05 0.03 0.04 0.05 0.05 0.03 0.02 0.03 0.06 0.09 0.12 0.15 0.14 0.14 0.13 0.11 0.08 0.05 0.05 0.05 0.03 0.03 0.02 0.02 0.02 0.03 0.03 0.04 0.04 0.03 0.04 0.04 0.04 0.05 0.05
0.00 0.00 0.00 0.02 0.05 0.03 0.03 0.04 0.02 0.02 0.03 0.04 0.03 0.01 0.02 0.05 0.06 0.07 0.06 0.05 0.05 0.05 0.06 0.06 0.03 0.02 0.01 0.01 0.02 0.03 0.03 0.03 0.03 0.03 0.03 0.03 0.03 0.03 0.03 0.03 0.04 0.05 0.05
0.00 0.00 0.00 0.03 0.03 0.02 0.01 0.03 0.04 0.02 0.02 0.02 0.02 0.01 0.03 0.08 0.07 0.04 0.03 0.02 0.02 0.02 0.05 0.07 0.06 0.06 0.02 0.01 0.01 0.01 0.01 0.02 0.02 0.02 0.03 0.03 0.03 0.03 0.02 0.03 0.04 0.05 0.05
0.00 0.00 0.00 0.02 0.03 0.01 0.00 0.01 0.04 0.05 0.03 0.03 0.04 0.02 0.03 0.06 0.07 0.07 0.05 0.05 0.07 0.08 0.05 0.03 0.05 0.05 0.02 0.01 0.01 0.01 0.01 0.01 0.02 0.02 0.02 0.02 0.02 0.02 0.03 0.03 0.04 0.05 0.06
0.00 0.00 0.00 0.01 0.03 0.02 0.02 0.02 0.02 0.02 0.03 0.05 0.05 0.04 0.04 0.06 0.08 0.06 0.04 0.07 0.08 0.07 0.05 0.03 0.02 0.01 0.01 0.01 0.01 0.01 0.01 0.01 0.01 0.01 0.02 0.02 0.03 0.03 0.03 0.04 0.06 0.09 0.14
0.00 0.00 0.00 0.01 0.03 0.02 0.02 0.02 0.01 0.01 0.02 0.05 0.03 0.03 0.02 0.02 0.03 0.02 0.02 0.03 0.04 0.02 0.02 0.01 0.01 0.01 0.00 0.00 0.00 0.00 0.01 0.03 0.04 0.03 0.02 0.02 0.04 0.05 0.05 0.08 0.12 0.15 0.19
0.00 0.00 0.00 0.00 0.01 0.01 0.01 0.01 0.01 0.01 0.02 0.02 0.01 0.03 0.02 0.02 0.02 0.01 0.01 0.01 0.01 0.01 0.01 0.00 0.00 0.00 0.00 0.00 0.00 0.00 0.01 0.02 0.03 0.03 0.02 0.03 0.04 0.04 0.06 0.07 0.09 0.11 0.15